Location: Marysville Observatory
(48.1092°N, 122.1645°W)
Time: 10:28:24
(UTC-07:00)

Amateur Radio Satellites - All Passes

Search period start: 20 April 2014 09:58
Search period end: 21 April 2014 09:58
Location: Marysville Observatory, 48.1092°N, 122.1645°W

Satellite Date Start Highest point End Downlink Frequencies (MHz)
Time Altitude Azimuth
Oscar 11 20 Apr 10:09:56 10:13:20 22° 93° (E) 10:16:43 145.825 FM, Beacon 2401.500 USB
PCSat 20 Apr 10:15:42 10:20:59 53° 243° (WSW) 10:26:14 145.825 MHz
HO-68 20 Apr 10:56:45 11:03:58 83° 289° (WNW) 11:11:10 435.675 MHz FM
KITSAT 1 20 Apr 10:59:47 11:07:43 53° 43° (NE) 11:15:35 435.175 FM
Oscar 10/S400 20 Apr 11:07:50 12:40:47 46° 230° (SW) 18:21:56 145.825 - 145.975 CW/USB, Beacon 145.810 USB
Sapphire 20 Apr 11:15:06 11:19:03 21° 253° (WSW) 11:23:00 437.095 MHz 1200 baud AX-25 AFSK
RS-15 20 Apr 11:20:26 11:30:13 34° 349° (N) 11:39:57 29.354 - 29.394 USB, Beacon 29.352 USB
Saudisat 1A 20 Apr 11:22:45 11:27:02 47° 121° (ESE) 11:31:20 436.775 MHz
FUNcube-1 20 Apr 11:38:25 11:42:37 58° 101° (E) 11:46:53 145.950 - 145.970 MHz USB
Oscar 11 20 Apr 11:45:35 11:49:43 43° 290° (WNW) 11:53:51 145.825 FM, Beacon 2401.500 USB
ITAMSAT 1 20 Apr 12:26:03 12:27:53 12° 52° (NE) 12:29:43 435.822 SSB
Oscar 19 20 Apr 12:26:15 12:29:53 20° 58° (ENE) 12:33:33 437.125 CW, 437.150 USB
Oscar 16 20 Apr 12:34:12 12:38:15 24° 60° (ENE) 12:42:19 437.025 USB, Beacon 2401.1428
HO-68 20 Apr 12:45:35 12:50:44 22° 310° (NW) 12:55:52 435.675 MHz FM
KITSAT 1 20 Apr 12:55:27 13:03:08 48° 246° (WSW) 13:10:45 435.175 FM
Saudisat 1A 20 Apr 13:02:49 13:06:49 31° 321° (NW) 13:10:49 436.775 MHz
Uribyol 2 20 Apr 13:11:09 13:15:26 27° 62° (ENE) 13:19:44 436.500 FM
FUNcube-1 20 Apr 13:15:52 13:18:40 18° 298° (WNW) 13:21:31 145.950 - 145.970 MHz USB
RS-15 20 Apr 13:36:01 13:46:11 40° 24° (NNE) 13:56:23 29.354 - 29.394 USB, Beacon 29.352 USB
AO-27 20 Apr 13:51:00 13:56:03 55° 69° (ENE) 14:01:06 436.795 MHz FM
Gurwin Techsat 1B 20 Apr 13:51:14 13:55:07 21° 59° (ENE) 13:59:00 435.225 FM
AO-Echo 20 Apr 13:56:55 14:01:55 48° 69° (ENE) 14:06:48 ?
ITAMSAT 1 20 Apr 14:01:19 14:06:26 65° 71° (ENE) 14:11:35 435.822 SSB
Oscar 19 20 Apr 14:03:35 14:08:43 71° 257° (WSW) 14:13:54 437.125 CW, 437.150 USB
Oscar 16 20 Apr 14:12:13 14:17:15 56° 259° (W) 14:22:22 437.025 USB, Beacon 2401.1428
Uosat F 20 Apr 14:20:40 14:22:04 11° 52° (NE) 14:23:28 435.120 FM
JAS-1B 20 Apr 14:34:39 14:40:39 27° 59° (ENE) 14:45:56 435.800 - 435.900 CW/SSB
TMSAT-1 20 Apr 14:37:34 14:42:19 35° 65° (ENE) 14:47:05 436.925 FM
Saudisat 1A 20 Apr 14:46:13 14:47:49 12° 344° (NNW) 14:49:24 436.775 MHz
Uribyol 2 20 Apr 14:49:42 14:54:41 48° 261° (W) 14:59:42 436.500 FM
AO-7 20 Apr 14:50:35 14:57:24 30° 50° (NE) 15:04:13 29.400 - 29.500 MHz
ISS 20 Apr 15:08:02 15:10:25 18° 138° (SE) 15:12:48 145.800 FM
OPAL 20 Apr 15:08:52 15:13:02 24° 95° (E) 15:17:11 ?
Gurwin Techsat 1B 20 Apr 15:29:18 15:34:35 69° 258° (WSW) 15:39:55 435.225 FM
AO-27 20 Apr 15:31:49 15:35:54 23° 268° (W) 15:40:00 436.795 MHz FM
AO-Echo 20 Apr 15:36:35 15:40:54 26° 267° (W) 15:45:09 ?
ITAMSAT 1 20 Apr 15:42:45 15:46:24 19° 270° (W) 15:50:05 435.822 SSB
RS-15 20 Apr 15:49:04 16:00:04 88° 52° (NE) 16:11:18 29.354 - 29.394 USB, Beacon 29.352 USB
Uosat F 20 Apr 15:54:57 15:59:54 63° 71° (ENE) 16:04:53 435.120 FM
SO-50 20 Apr 15:55:01 15:59:22 53° 122° (ESE) 16:03:47 436.795 FM
TMSAT-1 20 Apr 16:17:19 16:22:12 38° 263° (W) 16:27:08 436.925 FM
JAS-1B 20 Apr 16:23:05 16:30:57 71° 256° (WSW) 16:37:32 435.800 - 435.900 CW/SSB
Saudisat 1A 20 Apr 16:29:00 16:29:28 10° 9° (N) 16:29:55 436.775 MHz
AO-7 20 Apr 16:41:08 16:49:26 81° 252° (WSW) 16:57:47 29.400 - 29.500 MHz
ISS 20 Apr 16:43:26 16:46:47 87° 156° (SSE) 16:50:09 145.800 FM
OPAL 20 Apr 16:47:08 16:52:14 55° 293° (WNW) 16:57:19 ?
Uosat F 20 Apr 17:35:36 17:39:09 19° 269° (W) 17:42:42 435.120 FM
SO-50 20 Apr 17:36:17 17:40:12 29° 323° (NW) 17:44:11 436.795 FM
Hamsat 20 Apr 17:52:16 17:56:09 37° 69° (ENE) 18:00:06 145.90 MHz
RS-15 20 Apr 18:02:22 18:11:07 29° 256° (WSW) 18:20:03 29.354 - 29.394 USB, Beacon 29.352 USB
Saudisat 1A 20 Apr 18:07:09 18:10:42 23° 33° (NNE) 18:14:13 436.775 MHz
UOSAT-12 20 Apr 18:10:33 18:15:05 67° 124° (SE) 18:19:44 437.025 FM, 437.400 FM
JAS-1B 20 Apr 18:19:03 18:22:28 13° 273° (W) 18:25:40 435.800 - 435.900 CW/SSB
ISS 20 Apr 18:20:29 18:23:44 44° 356° (N) 18:26:59 145.800 FM
JAS-2 20 Apr 18:20:38 18:25:32 32° 64° (ENE) 18:30:09 435.800 - 435.900 CW/SSB, 435.910 FM
SO-67 20 Apr 18:26:03 18:28:07 15° 64° (ENE) 18:30:11 435.3500 MHz FM
OPAL 20 Apr 18:28:45 18:30:03 11° 313° (NW) 18:31:22 ?
AO-7 20 Apr 18:38:00 18:43:30 19° 273° (W) 18:49:03 29.400 - 29.500 MHz
SO-50 20 Apr 19:20:42 19:22:17 12° 347° (NNW) 19:23:52 436.795 FM
STRAND 1 20 Apr 19:27:22 19:32:09 39° 98° (E) 19:36:55 ?
Hamsat 20 Apr 19:28:52 19:32:16 24° 267° (W) 19:35:44 145.90 MHz
HO-68 20 Apr 19:43:00 19:48:41 27° 53° (NE) 19:54:24 435.675 MHz FM
Saudisat 1A 20 Apr 19:46:22 19:50:48 76° 234° (SW) 19:55:10 436.775 MHz
UOSAT-12 20 Apr 19:51:46 19:55:40 26° 325° (NW) 19:59:38 437.025 FM, 437.400 FM
ISS 20 Apr 19:57:27 20:00:48 62° 16° (NNE) 20:04:08 145.800 FM
SO-67 20 Apr 19:57:35 20:00:57 44° 261° (W) 20:04:20 435.3500 MHz FM
JAS-2 20 Apr 20:05:16 20:10:37 40° 262° (W) 20:15:35 435.800 - 435.900 CW/SSB, 435.910 FM
SO-50 20 Apr 21:03:27 21:04:56 11° 12° (NNE) 21:06:26 436.795 FM
STRAND 1 20 Apr 21:06:47 21:11:16 32° 296° (WNW) 21:15:43 ?
Oscar 11 20 Apr 21:08:32 21:12:11 27° 65° (ENE) 21:15:51 145.825 FM, Beacon 2401.500 USB
HO-68 20 Apr 21:28:35 21:35:43 79° 254° (WSW) 21:42:56 435.675 MHz FM
Saudisat 1A 20 Apr 21:29:05 21:29:36 10° 252° (WSW) 21:30:06 436.775 MHz
ISS 20 Apr 21:34:20 21:37:26 35° 215° (SW) 21:40:31 145.800 FM
UOSAT-12 20 Apr 21:35:47 21:37:26 12° 349° (N) 21:39:06 437.025 FM, 437.400 FM
MaSat-1 20 Apr 22:33:42 22:36:15 36° 304° (WNW) 22:38:37 437.345 MHz
FUNcube-1 20 Apr 22:38:34 22:42:44 73° 74° (ENE) 22:46:54 145.950 - 145.970 MHz USB
SO-50 20 Apr 22:43:07 22:47:04 27° 36° (NE) 22:51:03 436.795 FM
Oscar 11 20 Apr 22:44:21 22:48:17 34° 264° (W) 22:52:15 145.825 FM, Beacon 2401.500 USB
UOSAT-12 20 Apr 23:17:40 23:19:41 13° 14° (NNE) 23:21:43 437.025 FM, 437.400 FM
HO-68 20 Apr 23:20:24 23:24:35 16° 274° (W) 23:28:47 435.675 MHz FM
PCSat 20 Apr 23:22:07 23:23:28 11° 101° (E) 23:24:50 145.825 MHz
Sapphire 21 Apr 00:16:42 00:21:21 30° 111° (ESE) 00:26:02 437.095 MHz 1200 baud AX-25 AFSK
FUNcube-1 21 Apr 00:18:01 00:19:41 12° 272° (W) 00:21:22 145.950 - 145.970 MHz USB
SO-50 21 Apr 00:23:24 00:27:59 62° 236° (SW) 00:32:38 436.795 FM
OPAL 21 Apr 00:52:24 00:54:04 12° 48° (NE) 00:55:45 ?
UOSAT-12 21 Apr 00:57:06 01:01:19 31° 38° (NE) 01:05:31 437.025 FM, 437.400 FM
PCSat 21 Apr 01:00:31 01:05:52 69° 120° (ESE) 01:11:17 145.825 MHz
KITSAT 1 21 Apr 01:35:25 01:40:24 18° 100° (E) 01:45:24 435.175 FM
Sapphire 21 Apr 01:59:17 02:04:33 52° 311° (NW) 02:09:52 437.095 MHz 1200 baud AX-25 AFSK
AO-27 21 Apr 02:01:52 02:04:40 15° 88° (E) 02:07:28 436.795 MHz FM
AO-Echo 21 Apr 02:03:46 02:04:25 10° 85° (E) 02:05:05 ?
ITAMSAT 1 21 Apr 02:11:39 02:15:04 18° 90° (E) 02:18:28 435.822 SSB
Oscar 19 21 Apr 02:11:49 02:16:28 32° 95° (E) 02:21:05 437.125 CW, 437.150 USB
Oscar 16 21 Apr 02:20:16 02:25:09 40° 97° (E) 02:30:01 437.025 USB, Beacon 2401.1428
OPAL 21 Apr 02:26:59 02:31:57 61° 68° (ENE) 02:37:01 ?
UOSAT-12 21 Apr 02:37:07 02:41:44 53° 238° (WSW) 02:46:18 437.025 FM, 437.400 FM
PCSat 21 Apr 02:45:10 02:49:47 28° 321° (NW) 02:54:26 145.825 MHz
Uribyol 2 21 Apr 02:58:35 03:03:34 46° 99° (E) 03:08:32 436.500 FM
KITSAT 1 21 Apr 03:26:24 03:34:29 75° 121° (ESE) 03:42:36 435.175 FM
AO-Echo 21 Apr 03:39:13 03:44:03 82° 104° (ESE) 03:48:46 ?
AO-27 21 Apr 03:39:40 03:44:53 85° 286° (WNW) 03:50:03 436.795 MHz FM
Gurwin Techsat 1B 21 Apr 03:42:02 03:46:57 37° 96° (E) 03:51:50 435.225 FM
Sapphire 21 Apr 03:45:57 03:49:17 16° 334° (NNW) 03:52:37 437.095 MHz 1200 baud AX-25 AFSK
ITAMSAT 1 21 Apr 03:49:56 03:55:07 71° 288° (WNW) 04:00:15 435.822 SSB
Oscar 19 21 Apr 03:51:03 03:55:54 40° 294° (WNW) 04:00:43 437.125 CW, 437.150 USB
Oscar 16 21 Apr 03:59:49 04:04:26 33° 296° (WNW) 04:09:01 437.025 USB, Beacon 2401.1428
Uosat F 21 Apr 04:00:34 04:03:17 15° 88° (E) 04:06:00 435.120 FM
JAS-1B 21 Apr 04:04:35 04:08:56 22° 92° (E) 04:13:22 435.800 - 435.900 CW/SSB
OPAL 21 Apr 04:07:32 04:11:16 21° 267° (W) 04:15:03 ?
TMSAT-1 21 Apr 04:28:54 04:34:11 67° 102° (ESE) 04:39:27 436.925 FM
PCSat 21 Apr 04:33:21 04:35:09 12° 346° (NNW) 04:36:57 145.825 MHz
Uribyol 2 21 Apr 04:38:28 04:42:52 29° 298° (WNW) 04:47:15 436.500 FM
AO-7 21 Apr 04:39:11 04:46:04 28° 92° (E) 04:52:55 29.400 - 29.500 MHz
STRAND 1 21 Apr 05:10:50 05:13:30 14° 54° (NE) 05:16:09 ?
AO-Echo 21 Apr 05:19:26 05:22:12 16° 303° (WNW) 05:24:56 ?
AO-27 21 Apr 05:20:46 05:23:38 15° 305° (NW) 05:26:30 436.795 MHz FM
Gurwin Techsat 1B 21 Apr 05:22:05 05:26:54 36° 295° (WNW) 05:31:42 435.225 FM
KITSAT 1 21 Apr 05:23:07 05:30:36 38° 325° (NW) 05:38:06 435.175 FM
ITAMSAT 1 21 Apr 05:31:29 05:33:44 13° 307° (NW) 05:35:58 435.822 SSB
Uosat F 21 Apr 05:37:42 05:42:44 81° 287° (WNW) 05:47:43 435.120 FM
JAS-1B 21 Apr 05:54:34 06:00:09 58° 291° (WNW) 06:05:51 435.800 - 435.900 CW/SSB
TMSAT-1 21 Apr 06:09:44 06:13:39 22° 301° (WNW) 06:17:33 436.925 FM
RS-15 21 Apr 06:17:30 06:27:27 38° 109° (ESE) 06:37:08 29.354 - 29.394 USB, Beacon 29.352 USB
PCSat 21 Apr 06:19:28 06:21:13 11° 13° (NNE) 06:22:58 145.825 MHz
AO-7 21 Apr 06:31:20 06:39:38 76° 293° (WNW) 06:47:56 29.400 - 29.500 MHz
STRAND 1 21 Apr 06:46:48 06:51:55 82° 74° (ENE) 06:57:03 ?
MaSat-1 21 Apr 06:52:48 06:55:41 73° 242° (WSW) 06:59:04 437.345 MHz
JAS-2 21 Apr 07:09:38 07:13:31 20° 91° (E) 07:17:38 435.800 - 435.900 CW/SSB, 435.910 FM
Hamsat 21 Apr 07:10:05 07:14:19 48° 99° (E) 07:18:32 145.90 MHz
Sapphire 21 Apr 07:17:35 07:21:03 17° 27° (NNE) 07:24:31 437.095 MHz 1200 baud AX-25 AFSK
Uosat F 21 Apr 07:18:14 07:20:45 14° 306° (NW) 07:23:15 435.120 FM
SO-67 21 Apr 07:20:42 07:21:30 11° 88° (E) 07:22:18 435.3500 MHz FM
KITSAT 1 21 Apr 07:22:32 07:28:36 22° 354° (N) 07:34:40 435.175 FM
JAS-1B 21 Apr 07:48:34 07:49:37 11° 314° (NW) 07:50:40 435.800 - 435.900 CW/SSB
PCSat 21 Apr 08:01:59 08:06:36 27° 38° (NE) 08:11:11 145.825 MHz
AO-7 21 Apr 08:25:11 08:31:13 23° 315° (NW) 08:37:16 29.400 - 29.500 MHz
RS-15 21 Apr 08:27:49 08:39:03 74° 313° (NW) 08:50:03 29.354 - 29.394 USB, Beacon 29.352 USB
STRAND 1 21 Apr 08:28:55 08:31:46 15° 272° (W) 08:34:37 ?
Hamsat 21 Apr 08:46:45 08:50:01 21° 297° (WNW) 08:53:17 145.90 MHz
SO-67 21 Apr 08:51:34 08:55:03 60° 286° (WNW) 08:58:30 435.3500 MHz FM
JAS-2 21 Apr 08:53:46 08:59:05 68° 288° (WNW) 09:04:54 435.800 - 435.900 CW/SSB, 435.910 FM
HO-68 21 Apr 08:53:56 08:58:15 17° 86° (E) 09:02:32 435.675 MHz FM
Sapphire 21 Apr 09:00:21 09:05:42 56° 50° (NE) 09:11:01 437.095 MHz 1200 baud AX-25 AFSK
KITSAT 1 21 Apr 09:20:15 09:27:04 28° 23° (NNE) 09:33:50 435.175 FM
PCSat 21 Apr 09:45:06 09:50:31 71° 240° (WSW) 09:55:54 145.825 MHz
